User: anonymous   Login
Location: Unspecified
(0.0000°N, 0.0000°E)
Time: 09:26:15
(UTC+02:00)
Language:

NATO 3D Rocket - Orbit

View from above orbital plane
View from above orbital plane
View from above satellite
View from above satellite

Ground track
Ground track

The orbit data is extracted from the following two-line orbital elements,

1 15392U 84115B   17145.11635433 +.00000173 +00000-0 +28483-5 0  9994
2 15392 021.4966 056.5356 1034386 196.3390 160.1083 12.45549444463347
Epoch (UTC): 25 May 2017 02:47:33
Eccentricity: 0.1034386
inclination: 21.4966°
perigee height: 670 km
apogee height: 2296 km
right ascension of ascending node: 56.5356°
argument of perigee: 196.3390°
revolutions per day: 12.45549444
mean anomaly at epoch: 160.1083°
orbit number at epoch: 46334

The dashed part of the orbit path shows where the satellite is in the earth's shadow,  

DLR